Location: Shepherdstown, WV
(39.4326°N, 77.8042°W)
Time: 06:10:49
(UTC-04:00)

SR - Pass Details

Date: 05 August 2021
Orbit: 581 x 874 km, 66.7° (Epoch: 24 September)

Event Time Altitude Azimuth Distance (km) Brightness Sun altitude
Rises 06:26:14 0° 219° (SW) 3,442 ? 1.2°
Reaches altitude 10° 06:28:48 10° 224° (SW) 2,494 ? 1.7°
Maximum altitude 06:34:29 56° 302° (WNW) 984 ? 2.7°
Drops below altitude 10° 06:39:54 10° 21° (NNE) 2,372 ? 3.7°
Sets 06:42:18 0° 25° (NNE) 3,261 ? 4.1°
